Location: Goettingen
(51.5300°N, 9.9433°E)
Time: 19:57:47
(UTC+01:00)

ISS - Pass Details

Date: 10 December 2017
Orbit: 402 x 407 km, 51.6° (Epoch: 11 December)

Event Time Altitude Azimuth Distance (km) Brightness Sun altitude
Rises 19:01:39 0° 284° (WNW) 2,332 1.2 -25.2°
Reaches altitude 10° 19:03:49 10° 276° (W) 1,468 0.0 -25.5°
Enters shadow 19:05:43 27° 252° (WSW) 820 -1.7 -25.8°
